Regional Weather Roundup
Issued by NWS Cleveland, OH

Home | Current Version | Previous Version | Graphics & Text | Print | Product List | Glossary On
Versions: 1 2 3 4 5 6 7 8 9 10 11 12 13 14 15 16 17 18 19 20 21 22 23 24 25 26 27 28 29 30 31 32 33 34 35 36 37 38 39 40 41 42 43 44 45 46 47 48 49 50
000
ASUS41 KCLE 241410
RWRCLE
OHIO REGIONAL WEATHER ROUNDUP
NATIONAL WEATHER SERVICE CLEVELAND, OH
1000 AM EDT SUN MAY 24 2015

NOTE: "FAIR" INDICATES FEW OR NO CLOUDS BELOW 12,000 FEET WITH NO
SIGNIFICANT WEATHER AND/OR OBSTRUCTIONS TO VISIBILITY.

OHZ001>008-015>018-024>027-034-035-043-044-241500-
   NORTHWEST OHIO

CITY           SKY/WX    TMP DP  RH WIND       PRES   REMARKS
DEFIANCE       PTSUNNY   72  49  44 S12       30.26F
FINDLAY        MOSUNNY   74  49  41 S12       30.27F
TOLEDO EXPRESS MOSUNNY   72  49  44 SW5       30.27F
TOLEDO EXEC    MOSUNNY   73  47  39 S9        30.28F
LIMA           SUNNY     72  49  44 S13       30.28F
$$

OHZ009>014-019>023-028>033-038-089-241500-
   NORTHEAST OHIO

CITY           SKY/WX    TMP DP  RH WIND       PRES   REMARKS
CLE-HOPKINS    PTSUNNY   72  48  42 SW10      30.31F
CLE-LAKEFRONT  SUNNY     73  48  41 S8        30.28F
CUY CO. ARPT   PTSUNNY   73  52  46 SW14      30.31F
LORAIN-ELYRIA  SUNNY     71  49  45 SW10      30.30F
ASHTABULA      MOSUNNY   68  47  46 SW7       30.32F
AKRON-CANTON   MOSUNNY   71  44  37 SW10      30.33F
WOOSTER        SUNNY     70  44  39 SW15      30.33F
MANSFIELD      SUNNY     72  47  40 S9        30.32S
YOUNGSTOWN     PTSUNNY   68  46  45 S8        30.33S
$$

OHZ042-051>053-060>062-070>072-077>081-241500-
  SOUTHWEST OHIO

CITY           SKY/WX    TMP DP  RH WIND       PRES   REMARKS
CINC-COVINGTON PTSUNNY   73  53  49 S10G16    30.29S
CINC-LUNKEN    MOSUNNY   71  55  56 S6        30.29F
HAMILTON       PTSUNNY   72  55  55 VRB3      30.30S
DAYTON         PTSUNNY   73  52  47 S10       30.30S
WRIGHT-PAT AFB MOSUNNY   73  52  47 S7        30.29S
DAYTON GENERAL MOSUNNY   71  53  52 S8        30.29S
WILMINGTON     SUNNY     74  48  39 S13       30.30S
$$

OHZ036-037-039>041-045>050-054>059-063>069-073>076-082>088-241500-
  CENTRAL AND SOUTHEAST OHIO

CITY           SKY/WX    TMP DP  RH WIND       PRES   REMARKS
COLUMBUS       MOSUNNY   71  49  45 SE8       30.31F
OSU AIRPORT    SUNNY     71  48  43 S10       30.30F
BOLTON FIELD   MOSUNNY   70  50  49 SE10      30.31F
RICKENBACK AFB PTSUNNY   69  51  51 S6        30.31S
NEWARK         SUNNY     72  50  45 SE9       30.32S
MARION         SUNNY     73  48  41 S13       30.30F
LANCASTER      MOSUNNY   72  48  42 SE7       30.32F
ZANESVILLE     SUNNY     70  48  45 SE7       30.33F
NEW PHILLY     SUNNY     69  50  50 SE5       30.34F
$$


USA.gov is the U.S. government's official web portal to all federal, state and local government web resources and services.